Tacoma Narrows, WA
on Friday, February 22, 2013

Friday
Previous Day Next Day
Daily Summary
 ActualAverageRecord
Temperature
Mean Temperature °F °F  
Max Temperature 45°F 47°F 59°F (2004)
Min Temperature 39°F 36°F 30°F (2005)
Degree Days
Heating Degree Days 23    
Moisture
Dew Point 37°F   
Average Humidity 82    
Maximum Humidity 89    
Minimum Humidity 73    
Precipitation
Precipitation 0.57 in in in ()
Wind
Wind Speed 16 mph   
Max Wind Speed 25 mph   
Max Gust Speed 38 mph   
Visibility 9 miles   
Events Rain   
Averages and records for this station are not official NWS values.
Key: T is trace of precipitation, MM is missing value
Source: NWS Daily Summary
Seasonal Weather Averages
Time(PST)TemperatureDew PointHumidity Pressure Visibility Wind DirectionWind SpeedGust SpeedPrecipitationEvents Conditions
12:53 AM 43.0°F 37.9°F 82% 30.08 in 10.0 miles South 13.8 mph 20.7 mph N/A   Overcast
1:10 AM 42.8°F 37.4°F 81% 30.07 in 10.0 miles South 12.7 mph - N/A   Overcast
1:17 AM 42.8°F 37.4°F 81% 30.07 in 10.0 miles South 15.0 mph 20.7 mph N/A   Overcast
1:48 AM 42.8°F 37.4°F 81% 30.07 in 10.0 miles SSW 15.0 mph 20.7 mph 0.01 in Rain Light Rain
1:53 AM 42.1°F 37.9°F 85% 30.08 in 10.0 miles South 13.8 mph 20.7 mph 0.01 in   Overcast
2:53 AM 42.1°F 37.9°F 85% 30.06 in 10.0 miles South 11.5 mph - 0.00 in Rain Light Rain
3:28 AM 42.8°F 37.4°F 81% 30.03 in 10.0 miles South 11.5 mph - 0.00 in   Overcast
3:53 AM 42.1°F 37.9°F 85% 30.01 in 9.0 miles South 12.7 mph - 0.00 in Rain Light Rain
4:44 AM 42.8°F 37.4°F 81% 29.98 in 6.0 miles South 13.8 mph - 0.00 in Rain Light Rain
4:53 AM 42.1°F 37.9°F 85% 29.99 in 7.0 miles South 13.8 mph - 0.00 in   Overcast
5:42 AM 42.8°F 37.4°F 81% 29.95 in 7.0 miles South 13.8 mph - 0.02 in Rain Light Rain
5:49 AM 42.8°F 37.4°F 81% 29.94 in 8.0 miles South 13.8 mph - 0.02 in Rain Light Rain
5:53 AM 42.1°F 37.9°F 85% 29.95 in 9.0 miles South 17.3 mph 23.0 mph 0.02 in Rain Light Rain
6:01 AM 42.8°F 37.4°F 81% 29.94 in 9.0 miles South 16.1 mph 24.2 mph 0.01 in Rain Light Rain
6:37 AM 42.8°F 37.4°F 81% 29.90 in 10.0 miles South 18.4 mph 26.5 mph 0.02 in Rain Light Rain
6:53 AM 43.0°F 37.9°F 82% 29.90 in 10.0 miles South 17.3 mph 26.5 mph 0.02 in Rain Light Rain
7:02 AM 42.8°F 37.4°F 81% 29.89 in 10.0 miles South 17.3 mph 26.5 mph 0.00 in   Overcast
7:53 AM 43.0°F 37.9°F 82% 29.89 in 6.0 miles South 23.0 mph 31.1 mph 0.03 in Rain Light Rain
8:53 AM 42.1°F 37.9°F 85% 29.87 in 5.0 miles South 21.9 mph 29.9 mph 0.12 in Rain Light Rain
9:39 AM 42.8°F 37.4°F 81% 29.84 in 6.0 miles South 18.4 mph 28.8 mph 0.12 in Rain Light Rain
9:53 AM 42.1°F 37.9°F 85% 29.84 in 7.0 miles South 20.7 mph 32.2 mph 0.14 in Rain Light Rain
10:53 AM 42.1°F 37.9°F 85% 29.82 in 10.0 miles South 23.0 mph 31.1 mph 0.06 in Rain Light Rain
11:53 AM 42.1°F 37.0°F 82% 29.79 in 10.0 miles South 24.2 mph 33.4 mph 0.05 in Rain Light Rain
12:53 PM 42.1°F 37.0°F 82% 29.77 in 6.0 miles South 25.3 mph 38.0 mph 0.05 in Rain Light Rain
1:53 PM 43.0°F 37.9°F 82% 29.74 in 10.0 miles South 24.2 mph 35.7 mph 0.02 in Rain Light Rain
2:32 PM 42.8°F 39.2°F 87% 29.73 in 2.5 miles SSW 19.6 mph 31.1 mph 0.02 in   Overcast
2:39 PM 42.8°F 39.2°F 87% 29.73 in 4.0 miles South 20.7 mph 28.8 mph 0.02 in Rain Light Rain
2:45 PM 42.8°F 39.2°F 87% 29.73 in 4.0 miles South 20.7 mph 28.8 mph 0.02 in Rain Light Rain
2:53 PM 43.0°F 39.9°F 89% 29.74 in 8.0 miles South 17.3 mph 26.5 mph 0.02 in   Overcast
3:08 PM 44.6°F 41.0°F 87% 29.73 in 10.0 miles South 17.3 mph 25.3 mph N/A   Overcast
3:53 PM 45.0°F 41.0°F 86% 29.76 in 10.0 miles SSW 17.3 mph 24.2 mph 0.03 in   Overcast
4:21 PM 44.6°F 37.4°F 76% 29.76 in 10.0 miles SSW 13.8 mph 26.5 mph 0.00 in   Overcast
4:53 PM 44.1°F 36.0°F 73% 29.78 in 10.0 miles SW 13.8 mph 23.0 mph 0.00 in   Mostly Cloudy
5:53 PM 42.1°F 35.1°F 76% 29.80 in 10.0 miles WSW 12.7 mph 28.8 mph 0.00 in Rain Light Rain
6:53 PM 39.9°F 33.1°F 77% 29.82 in 10.0 miles SSW 15.0 mph 23.0 mph 0.00 in   Mostly Cloudy
6:56 PM 39.2°F 33.8°F 81% 29.81 in 10.0 miles SW 17.3 mph 26.5 mph N/A   Scattered Clouds
7:53 PM 39.0°F 32.0°F 76% 29.84 in 10.0 miles SSW 16.1 mph 28.8 mph N/A   Scattered Clouds
8:53 PM 39.0°F 32.0°F 76% 29.86 in 10.0 miles SW 12.7 mph 26.5 mph N/A   Clear
9:53 PM 39.9°F 32.0°F 73% 29.89 in 10.0 miles SSW 17.3 mph 29.9 mph N/A   Partly Cloudy
10:48 PM 39.2°F 33.8°F 81% 29.91 in 10.0 miles SSW 12.7 mph - N/A   Mostly Cloudy
10:53 PM 39.0°F 33.1°F 79% 29.92 in 10.0 miles SSW 12.7 mph - N/A   Mostly Cloudy
11:27 PM 39.2°F 32.0°F 75% 29.91 in 10.0 miles SSW 15.0 mph 27.6 mph N/A   Scattered Clouds
11:53 PM 39.0°F 32.0°F 76% 29.92 in 10.0 miles SSW 18.4 mph 27.6 mph N/A   Clear
Moon Phase
Feb. 22 Feb. 25 Mar. 04 Mar. 11 Mar. 19
Sunrise:07:02 AM (PST) Moon Rise:02:54 PM (PST)
Sunset:05:45 PM (PST) Moon Set:04:59 AM (PST)

Copyright © 2014 The Weather Underground, Inc.